GFSNIL_sfc_thetae_132.txt.gz
Theta_e
330 329 329 328 329 329 329 330 330 329 328 327 325 324 323 322 320 319 317 315 314 312
327 328 328 327 327 328 328 327 328 327 326 324 323 323 320 317 314 315 313 311 309 307
324 325 328 328 328 328 328 328 328 326 323 320 319 321 319 313 311 308 305 304 303 301
316 319 323 323 323 323 323 322 322 321 319 316 314 313 310 307 305 304 301 300 300 297
310 312 316 318 320 320 319 317 316 313 311 309 307 306 305 302 301 300 298 296 296 295
304 305 305 307 313 312 310 308 307 307 306 304 302 301 300 300 298 297 296 295 294 293
301 303 303 302 303 305 305 304 303 303 302 300 298 297 294 295 294 294 293 293 292 291
302 303 301 297 296 298 298 298 297 296 294 294 294 293 291 291 291 291 290 289 289 289
297 295 295 294 292 291 290 291 291 290 290 289 289 293 292 291 289 288 287 286 285 285
292 291 290 290 289 289 289 289 289 288 288 288 289 292 292 289 287 286 286 285 284 284
290 289 288 288 288 287 287 287 287 287 287 287 288 292 290 288 286 285 284 284 284 284
289 287 287 287 286 286 286 286 286 286 286 286 287 290 290 287 285 284 284 285 284 284
286 287 287 286 285 285 286 285 286 285 286 286 286 290 289 286 285 284 283 284 284 284
283 283 286 285 285 285 285 285 285 285 284 285 286 286 289 288 284 284 283 283 282 283

GFSNIL_sfc_thetae_138.txt.gz
Theta_e
324 323 323 323 324 324 324 325 326 324 325 325 325 324 323 322 320 320 318 318 317 316
325 325 324 324 324 325 325 325 324 325 324 324 324 324 323 322 322 319 318 318 317 314
324 326 326 325 324 324 325 323 323 325 325 325 325 324 323 323 322 319 317 314 312 311
315 317 320 324 324 323 323 324 325 325 326 326 324 323 322 321 317 315 314 309 311 310
306 310 313 316 317 318 322 320 323 321 321 320 318 318 318 315 311 312 307 306 306 305
300 302 304 303 305 309 312 314 314 314 314 312 311 310 309 309 307 307 306 304 304 301
298 299 299 299 300 304 306 307 307 307 306 305 304 303 301 302 302 302 301 301 301 298
297 297 296 295 294 296 298 299 300 300 299 299 300 298 298 297 297 296 295 294 294 294
295 294 294 295 293 291 291 293 295 294 294 294 292 295 295 294 293 292 290 289 289 289
291 291 291 291 292 291 291 292 292 291 291 291 292 294 294 292 290 289 289 288 288 286
290 290 290 290 290 289 289 289 289 289 289 289 290 293 292 290 288 288 287 287 287 286
291 288 289 287 288 288 287 286 286 286 286 287 287 292 291 288 286 285 285 285 285 286
290 289 288 288 286 285 285 285 285 286 286 286 286 291 290 287 285 285 284 284 284 284
286 287 287 286 285 286 285 285 285 285 285 286 286 288 289 288 285 285 284 284 283 283

GFSNIL_sfc_thetae_141.txt.gz
Theta_e
321 321 321 320 321 320 321 322 321 321 322 322 323 322 321 321 320 319 319 318 317 317
321 321 321 321 321 322 321 322 321 322 321 322 322 322 322 323 322 321 320 320 318 317
322 322 322 320 321 322 323 321 321 322 322 322 322 322 322 323 323 322 321 319 317 316
316 318 320 322 322 322 322 321 322 324 324 324 324 324 323 322 322 319 319 313 315 314
309 311 313 315 317 320 322 322 324 324 322 322 321 320 318 317 314 315 314 312 309 311
301 303 305 305 306 311 314 316 316 316 316 315 314 312 311 312 310 310 311 308 307 307
297 298 298 298 301 305 306 306 306 307 307 307 307 305 303 304 305 304 303 302 302 301
296 296 295 294 294 298 299 300 300 300 300 300 300 297 298 298 299 299 297 295 295 295
295 294 293 293 292 291 291 292 293 293 294 295 293 296 296 296 296 295 292 291 289 290
291 290 290 290 290 290 290 291 291 291 292 292 292 295 295 293 292 291 291 289 288 288
289 289 289 289 290 290 290 290 289 289 289 289 290 294 292 290 289 288 288 288 288 287
289 288 290 288 288 288 287 286 286 286 287 287 287 292 291 288 287 286 285 286 286 287
290 289 288 288 286 285 286 285 285 286 286 286 286 291 290 288 286 285 284 284 285 285
287 288 288 286 285 286 286 286 285 285 285 286 286 288 290 289 285 285 284 284 283 284

GFSNIL_sfc_thetae_144.txt.gz
Theta_e
321 321 321 320 319 319 319 320 319 319 320 320 321 321 321 321 321 320 318 319 318 318
320 320 320 319 319 319 319 319 318 319 319 320 320 320 321 322 321 321 320 320 319 319
318 318 320 317 317 318 319 318 318 319 319 319 319 320 321 322 322 321 321 320 319 318
317 317 318 319 319 319 319 318 319 319 320 322 321 321 321 320 321 320 320 319 317 317
312 313 314 317 317 318 320 320 322 321 321 321 321 321 320 319 315 317 316 314 311 313
303 305 306 307 308 313 315 317 317 317 316 316 315 315 313 311 310 310 310 309 308 308
297 299 299 299 303 305 306 306 307 306 306 305 306 305 303 304 305 305 304 302 302 302
295 295 295 294 298 300 300 300 299 300 300 300 300 297 299 299 301 301 299 296 296 295
294 293 292 292 291 291 291 294 295 294 294 295 293 296 296 296 297 296 293 292 290 290
291 290 290 289 290 289 289 290 290 291 292 291 292 295 294 292 292 291 291 289 288 288
289 288 288 289 289 289 291 290 289 289 289 289 290 293 292 290 289 289 289 289 289 288
288 287 288 287 287 287 288 286 286 286 287 287 287 292 291 289 287 287 286 286 287 287
288 287 287 286 285 285 286 286 286 286 286 286 287 291 290 288 286 286 284 285 285 286
287 288 288 284 285 286 286 286 286 285 285 286 286 288 290 290 286 285 285 284 283 284

GFSNIL_sfc_thetae_147.txt.gz
Theta_e
324 324 324 324 323 322 322 322 323 322 323 323 324 324 324 323 322 321 320 319 320 320
323 322 322 323 322 322 323 321 322 322 322 322 322 322 323 322 321 321 321 320 319 319
321 321 322 321 320 321 321 321 320 320 321 321 321 321 321 321 322 321 321 320 319 319
318 319 320 319 320 320 320 319 319 320 320 320 320 321 320 320 321 319 319 318 318 318
315 316 317 318 318 318 319 319 320 320 319 320 320 321 319 319 317 316 315 314 312 312
310 312 314 315 315 316 317 318 317 318 317 317 316 315 313 313 312 312 312 310 310 309
304 305 305 304 307 308 309 308 307 306 306 306 306 306 304 306 307 306 305 303 303 302
297 298 299 301 302 302 301 302 302 302 302 301 299 296 299 300 302 302 300 295 294 293
296 295 294 295 295 295 296 297 297 296 295 295 293 296 296 298 299 297 294 291 290 292
293 291 291 291 291 291 291 291 292 294 293 292 293 295 294 293 295 293 293 290 289 289
290 290 290 290 290 291 292 291 290 290 290 290 291 293 292 291 290 290 289 290 290 290
290 289 289 288 290 290 289 288 287 287 288 288 288 292 292 290 288 288 287 288 289 289
289 289 289 288 288 286 287 286 287 286 287 286 287 291 291 289 287 286 285 286 286 286
288 289 288 287 287 287 286 286 286 286 286 287 287 289 291 290 287 286 285 285 285 286